User: anonymous
Location: Unspecified
(0.0000°N, 0.0000°E)
Time: 02:21:01
(UTC+02:00)
Language:

YAOGAN 1 - Orbit

View from above orbital plane
View from above orbital plane
View from above satellite
View from above satellite

Ground track
Ground track

The orbit data is extracted from the following two-line orbital elements,

1 29092U 06015A   14274.49266506  .00000888  00000-0  11885-3 0  1778
2 29092 097.9862 269.6833 0001516 106.3543 007.9366 14.81923637455736
Epoch (UTC): 01 October 2014 11:49:26
Eccentricity: 0.0001516
inclination: 97.9862°
perigee height: 622 km
apogee height: 624 km
right ascension of ascending node: 269.6833°
argument of perigee: 106.3543°
revolutions per day: 14.81923637
mean anomaly at epoch: 7.9366°
orbit number at epoch: 45573

The dashed part of the orbit path shows where the satellite is in the earth's shadow,  

DLR